TimeAST,TemperatureF,Dew PointF,Humidity,Sea Level PressureIn,VisibilityMPH,Wind Direction,Wind SpeedMPH,Gust SpeedMPH,PrecipitationIn,Events,Conditions,WindDirDegrees,DateUTC
12:00 AM,73.4,64.4,73,29.92,-9999.0,North,9.2,-,N/A,,Clear,10,2013-03-24 21:00:00
12:30 AM,73.4,64.4,73,29.92,6.2,NNE,4.6,-,N/A,,Partly Cloudy,30,2013-03-24 21:30:00
1:00 AM,73.4,62.6,69,29.92,6.2,East,3.5,-,N/A,,Scattered Clouds,90,2013-03-24 22:00:00
2:00 AM,73.4,60.8,65,29.92,6.2,Variable,2.3,-,N/A,,Scattered Clouds,0,2013-03-24 23:00:00
2:30 AM,75.2,55.4,50,29.92,6.2,North,5.8,-,N/A,,Mostly Cloudy,350,2013-03-24 23:30:00
3:00 AM,76,51,31,29.94,7,NNW,5.8,,,,Scattered Clouds,330,2013-03-25 00:00:00
3:00 AM,75.2,51.8,44,29.92,6.2,NNW,5.8,-,N/A,,Mostly Cloudy,330,2013-03-25 00:00:00
4:00 AM,75.2,60.8,61,29.95,6.2,NW,4.6,-,N/A,,Scattered Clouds,320,2013-03-25 01:00:00
5:00 AM,73.4,60.8,65,29.95,-9999.0,NNW,12.7,-,N/A,,Clear,330,2013-03-25 02:00:00
5:30 AM,73.4,60.8,65,29.98,5.0,NW,9.2,-,N/A,,Mostly Cloudy,320,2013-03-25 02:30:00
7:00 AM,71.6,60.8,69,30.01,3.1,NNW,5.8,-,N/A,,Mostly Cloudy,340,2013-03-25 04:00:00
8:00 AM,73.4,60.8,65,30.04,2.5,NNW,6.9,-,N/A,,Mostly Cloudy,340,2013-03-25 05:00:00
8:30 AM,73.4,59.0,61,30.04,2.5,NNW,10.4,-,N/A,,Mostly Cloudy,340,2013-03-25 05:30:00
9:00 AM,74,60,52,30.06,3,North,10.4,,,,Widespread Dust,0,2013-03-25 06:00:00
9:00 AM,73.4,59.0,61,30.04,2.8,North,10.4,-,N/A,,Mostly Cloudy,360,2013-03-25 06:00:00
9:30 AM,75.2,60.8,61,30.04,3.7,North,10.4,-,N/A,,Mostly Cloudy,350,2013-03-25 06:30:00
10:00 AM,75.2,60.8,61,30.04,3.7,NNW,11.5,-,N/A,,Mostly Cloudy,340,2013-03-25 07:00:00
10:30 AM,75.2,60.8,61,30.04,3.7,North,11.5,-,N/A,,Mostly Cloudy,350,2013-03-25 07:30:00
11:00 AM,75.2,60.8,61,30.04,-9999.0,NNW,10.4,-,N/A,,Mostly Cloudy,340,2013-03-25 08:00:00
11:30 AM,75.2,59.0,57,30.04,6.2,NNW,10.4,-,N/A,,Mostly Cloudy,340,2013-03-25 08:30:00
12:00 PM,77.0,60.8,57,30.01,6.2,North,11.5,-,N/A,,Mostly Cloudy,350,2013-03-25 09:00:00
12:30 PM,78.8,62.6,57,30.01,5.0,North,15.0,-,N/A,,Mostly Cloudy,350,2013-03-25 09:30:00
1:00 PM,78.8,59.0,51,29.98,6.2,North,16.1,-,N/A,,Mostly Cloudy,360,2013-03-25 10:00:00
1:30 PM,78.8,57.2,47,29.98,6.2,North,16.1,-,N/A,,Scattered Clouds,360,2013-03-25 10:30:00
2:00 PM,77.0,60.8,57,29.98,6.2,North,17.3,-,N/A,,Mostly Cloudy,10,2013-03-25 11:00:00
2:30 PM,78.8,59.0,51,29.98,6.2,North,20.7,-,N/A,,Mostly Cloudy,10,2013-03-25 11:30:00
3:00 PM,78,58,40,29.98,7,North,20.7,,,,Scattered Clouds,0,2013-03-25 12:00:00
3:00 PM,78.8,59.0,51,29.98,6.2,North,20.7,-,N/A,,Mostly Cloudy,360,2013-03-25 12:00:00
3:30 PM,78.8,50.0,36,29.95,-9999.0,North,17.3,-,N/A,,Clear,350,2013-03-25 12:30:00
4:00 PM,77.0,51.8,41,29.98,-9999.0,North,18.4,-,N/A,,Clear,350,2013-03-25 13:00:00
4:30 PM,77.0,50.0,39,29.98,-9999.0,North,17.3,-,N/A,,Clear,350,2013-03-25 13:30:00
5:00 PM,75.2,50.0,41,29.98,-9999.0,NNW,16.1,-,N/A,,Clear,340,2013-03-25 14:00:00
5:30 PM,73.4,48.2,41,29.98,-9999.0,NNW,16.1,-,N/A,,Clear,330,2013-03-25 14:30:00
6:00 PM,73.4,50.0,44,29.98,-9999.0,NW,12.7,-,N/A,,Clear,320,2013-03-25 15:00:00
7:00 PM,69.8,51.8,53,30.01,-9999.0,NNW,11.5,-,N/A,,Clear,330,2013-03-25 16:00:00
8:00 PM,69.8,50.0,49,30.01,-9999.0,NW,11.5,-,N/A,,Clear,310,2013-03-25 17:00:00
9:00 PM,69.8,48.2,46,30.01,-9999.0,NW,10.4,-,N/A,,Clear,320,2013-03-25 18:00:00
9:30 PM,68.0,48.2,49,30.01,-9999.0,NW,9.2,-,N/A,,Clear,320,2013-03-25 18:30:00
10:00 PM,68.0,48.2,49,29.98,-9999.0,NW,10.4,-,N/A,,Clear,320,2013-03-25 19:00:00
10:30 PM,68.0,42.8,40,29.98,-9999.0,NW,10.4,-,N/A,,Clear,310,2013-03-25 19:30:00
11:00 PM,68.0,41.0,37,29.98,-9999.0,NW,11.5,-,N/A,,Clear,320,2013-03-25 20:00:00
11:30 PM,68.0,42.8,40,29.98,-9999.0,NW,10.4,-,N/A,,Clear,320,2013-03-25 20:30:00